This is the latest recevied weather packets stored in our database for station/object W1GK. If no packets are shown the sender has not sent any weather packets the latest 10 day(s).
| Time | Temp. | Humidity | Pressure | Rain* | Wind** | Luminosity | Snow |
|---|---|---|---|---|---|---|---|
| 1787530199 | 42.78° C | 9% | 1012 hPa | 0 mm | - | 364 W/m² | - |
| 1787529598 | 42.78° C | 9% | 1012.1 hPa | 0 mm | - | 408 W/m² | - |
| 1787529000 | 42.78° C | 9% | 1012.1 hPa | 0 mm | - | 432 W/m² | - |
| 1787528399 | 43.33° C | 10% | 1012.2 hPa | 0 mm | - | 464 W/m² | - |
| 1787527799 | 43.33° C | 10% | 1012.2 hPa | 0 mm | - | 496 W/m² | - |
| 1787527200 | 43.33° C | 9% | 1012.5 hPa | 0 mm | - | 536 W/m² | - |
| 1787526599 | 43.33° C | 10% | 1012.5 hPa | 0 mm | - | 571 W/m² | - |
| 1787525998 | 43.89° C | 10% | 1012.5 hPa | 0 mm | - | 592 W/m² | - |
| 1787525399 | 43.89° C | 9% | 1012.6 hPa | 0 mm | - | 622 W/m² | - |
| 1787524799 | 43.89° C | 10% | 1012.7 hPa | 0 mm | - | 640 W/m² | - |
| 1787524200 | 43.33° C | 9% | 1012.6 hPa | 0 mm | - | 664 W/m² | - |
| 1787523599 | 43.89° C | 9% | 1012.8 hPa | 0 mm | - | 701 W/m² | - |
| 1787522999 | 43.89° C | 10% | 1013 hPa | 0 mm | - | 745 W/m² | - |
| 1787522398 | 43.89° C | 10% | 1013 hPa | 0 mm | - | 705 W/m² | - |
| 1787521798 | 43.89° C | 10% | 1013.1 hPa | 0 mm | - | 819 W/m² | - |
| 1787521198 | 43.89° C | 10% | 1013.4 hPa | 0 mm | - | 847 W/m² | - |
| 1787520599 | 43.33° C | 11% | 1013.5 hPa | 0 mm | - | 701 W/m² | - |
| 1787519999 | 42.78° C | 11% | 1013.6 hPa | 0 mm | - | 339 W/m² | - |
| 1787519397 | 42.22° C | 11% | 1013.7 hPa | 0 mm | - | 172 W/m² | - |
| 1787518800 | 42.22° C | 11% | 1013.8 hPa | 0 mm | - | 142 W/m² | - |
| 1787518198 | 42.22° C | 11% | 1014 hPa | 0 mm | - | 174 W/m² | - |
| 1787517598 | 42.22° C | 11% | 1014.1 hPa | 0 mm | - | 176 W/m² | - |
| 1787516998 | 42.78° C | 11% | 1014.1 hPa | 0 mm | - | 162 W/m² | - |
| 1787516399 | 43.33° C | 11% | 1014.3 hPa | 0 mm | - | 186 W/m² | - |
| 1787515799 | 43.33° C | 11% | 1014.4 hPa | 0 mm | - | 900 W/m² | - |
* Rain latest hour (hover to see other rain measurements)
** Current wind speed in m/s (hover to see current wind gust speed)